Norfork Lake Weather Center

Moon Phase Calendar



Norfork Lake Water Level
Online Cameras

 


      

Current Conditions in Baxter
6/24/2022 11:52:21 PM

81°F
Feels Like 83
Clouds
Humidity
63%
Pressure
29.85"
Wind
6.1 mph (SE)
Dew Point
67°F
UV Index
0/10 (Low)
Visibility
6 mi

Hourly Forecast

Date & Time Fri, Jun 24
11:00 PM
Sat, Jun 25
12:00 AM
Sat, Jun 25
1:00 AM
Sat, Jun 25
2:00 AM
Sat, Jun 25
3:00 AM
Sat, Jun 25
4:00 AM
Sat, Jun 25
5:00 AM
Sat, Jun 25
6:00 AM
Sat, Jun 25
7:00 AM
Sat, Jun 25
8:00 AM
Sat, Jun 25
9:00 AM
Sat, Jun 25
10:00 AM
Sat, Jun 25
11:00 AM
Sat, Jun 25
12:00 PM
Sat, Jun 25
1:00 PM
Sat, Jun 25
2:00 PM
Sat, Jun 25
3:00 PM
Sat, Jun 25
4:00 PM
Sat, Jun 25
5:00 PM
Sat, Jun 25
6:00 PM
Sat, Jun 25
7:00 PM
Sat, Jun 25
8:00 PM
Sat, Jun 25
9:00 PM
Sat, Jun 25
10:00 PM
Sat, Jun 25
11:00 PM
Sun, Jun 26
12:00 AM
Sun, Jun 26
1:00 AM
Sun, Jun 26
2:00 AM
Sun, Jun 26
3:00 AM
Sun, Jun 26
4:00 AM
Sun, Jun 26
5:00 AM
Sun, Jun 26
6:00 AM
Sun, Jun 26
7:00 AM
Sun, Jun 26
8:00 AM
Sun, Jun 26
9:00 AM
Sun, Jun 26
10:00 AM
Sun, Jun 26
11:00 AM
Sun, Jun 26
12:00 PM
Sun, Jun 26
1:00 PM
Sun, Jun 26
2:00 PM
Sun, Jun 26
3:00 PM
Sun, Jun 26
4:00 PM
Sun, Jun 26
5:00 PM
Sun, Jun 26
6:00 PM
Sun, Jun 26
7:00 PM
Sun, Jun 26
8:00 PM
Sun, Jun 26
9:00 PM
Sun, Jun 26
10:00 PM
Condition
Clouds

Clouds

Clouds

Clouds

Clear

Clear

Clear

Clear

Clear

Clear

Clear

Clear

Clear

Clear

Clear

Clear

Clear

Clear

Clouds

Clouds

Clouds

Clear

Rain

Rain

Rain

Rain

Clouds

Clear

Clouds

Clouds

Rain

Clouds

Clouds

Rain

Rain

Rain

Rain

Clouds

Clouds

Clouds

Clouds

Clouds

Clouds

Clouds

Clouds

Clear

Clear

Clear
Temperature 80°F81°F79°F77°F75°F73°F70°F70°F72°F77°F82°F86°F90°F94°F97°F99°F101°F101°F99°F95°F90°F83°F78°F74°F73°F73°F73°F72°F72°F72°F71°F70°F71°F74°F73°F71°F74°F79°F83°F85°F86°F86°F85°F84°F80°F74°F72°F70°F
Feels Like 80°F83°F79°F78°F76°F73°F71°F70°F72°F77°F83°F88°F93°F97°F100°F103°F104°F103°F103°F100°F96°F88°F79°F75°F75°F75°F75°F74°F73°F73°F72°F71°F73°F76°F74°F72°F75°F79°F84°F85°F86°F86°F85°F84°F80°F74°F71°F69°F
Cloudiness 22%21%20%13%8%4%0%1%1%5%5%5%5%5%5%0%0%1%17%27%29%9%31%51%61%60%57%3%22%31%32%26%23%67%82%88%91%92%90%54%35%42%47%56%58%9%7%7%
Visibility 6 mi6 mi6 mi6 mi6 mi6 mi6 mi6 mi6 mi6 mi6 mi6 mi6 mi6 mi6 mi6 mi6 mi6 mi6 mi6 mi6 mi6 mi6 mi6 mi6 mi6 mi6 mi6 mi6 mi6 mi6 mi6 mi6 mi6 mi6 mi6 mi6 mi6 mi6 mi6 mi6 mi6 mi6 mi6 mi6 mi6 mi6 mi6 mi
Precipitation 0%0%0%0%0%0%0%0%0%0%0%0%0%0%0%0%0%0%0%0%6%48%75%81%81%84%84%2%7%25%21%32%43%61%97%94%95%77%77%0%0%0%0%0%0%0%0%0%
Humidity 65%63%65%68%70%71%73%72%74%64%55%49%44%39%36%33%31%28%33%43%52%65%78%89%90%91%91%93%94%93%95%97%96%93%94%95%89%63%51%47%45%45%44%45%46%51%49%53%
Dew Point 67°F67°F66°F66°F65°F63°F61°F61°F63°F63°F64°F65°F66°F66°F66°F65°F64°F63°F65°F69°F70°F70°F70°F70°F70°F71°F70°F70°F70°F69°F69°F69°F70°F72°F70°F70°F70°F66°F63°F62°F62°F62°F61°F60°F57°F55°F52°F52°F
Pressure 29.88"29.85"29.88"29.88"29.91"29.91"29.97"29.97"30"30"30"30"30"29.97"29.94"29.94"29.91"29.88"29.88"29.88"29.91"29.94"29.97"30.03"30.03"30.03"30"30"30"30.03"30.03"30.06"30.09"30.12"30.15"30.18"30.18"30.18"30.15"30.15"30.12"30.12"30.12"30.12"30.09"30.12"30.15"30.21"
Wind Speed 6.4 mph6.1 mph5.4 mph4.4 mph4.2 mph4.4 mph4 mph3.6 mph3.6 mph4.7 mph6.2 mph7.2 mph6.8 mph6.4 mph6.1 mph5.7 mph5.1 mph3.9 mph2 mph6.5 mph8.7 mph2.6 mph9.2 mph11 mph7.8 mph5.1 mph3.9 mph4.2 mph3.7 mph4.4 mph5.7 mph5.2 mph5.5 mph8.6 mph10.1 mph8.4 mph8.7 mph10.1 mph9.8 mph10 mph9.5 mph9.4 mph9.2 mph9.8 mph11.1 mph10.2 mph9.1 mph8.6 mph
Wind
Direction
130°
SE
142°
SE
142°
SE
143°
SE
136°
SE
131°
SE
133°
SE
135°
SE
134°
SE
152°
SSE
160°
SSE
182°
S
198°
SSW
213°
SSW
220°
SW
228°
SW
245°
WSW
251°
WSW
191°
S
121°
ESE
135°
SE
145°
SE
48°
NE
59°
ENE
96°
E
158°
SSE
225°
SW
239°
WSW
275°
W
324°
NW
357°
N
349°
N
350°
N
349°
N
355°
N

N

N

N
12°
NNE
15°
NNE
20°
NNE
20°
NNE
15°
NNE

N
360°
N

N

N

N

Daily Forecast

Date High Low Precip. Humidity
Today
Jun 24

Rain
94 °F
69 °F
29%
44%
Saturday
Jun 25

Rain
101 °F
70 °F
81%
36%
Sunday
Jun 26

Rain
86 °F
70 °F
97%
51%
Monday
Jun 27

Clouds
82 °F
60 °F
0%
34%
Tuesday
Jun 28

Clouds
84 °F
57 °F
0%
33%
Wednesday
Jun 29

Clouds
86 °F
59 °F
0%
30%
Thursday
Jun 30

Clear
96 °F
66 °F
0%
33%
Friday
Jul 1

Rain
98 °F
71 °F
72%
34%
Saturday
Jul 2

Rain
88 °F
70 °F
88%
80%
Sunday
Jul 3

Rain
86 °F
69 °F
82%
73%
Monday
Jul 4

Clouds
92 °F
65 °F
0%
47%
Tuesday
Jul 5

Clouds
94 °F
71 °F
17%
44%
Wednesday
Jul 6

Clouds
98 °F
75 °F
0%
35%
Thursday
Jul 7

Clouds
102 °F
76 °F
0%
34%
Friday
Jul 8

Clouds
100 °F
76 °F
0%
38%
Saturday
Jul 9

Clouds
101 °F
79 °F
0%
34%

Temperature 8-14 Day Outlook



Precipitation 8-14 Day Outlook






About Us
Contact Us
Site Map
Search Site
Advertise With Us
   
Norfork.USLakes.info
THE NORFORK LAKE WEBSITE

Copyright 2022, Lakes Online
Privacy    |    Legal